This is the latest recevied weather packets stored in our database for station/object SM6LNJ-13. If no packets are shown the sender has not sent any weather packets the latest 1 day(s).
| Time | Temp. | Humidity | Pressure | Rain* | Wind** | Luminosity | Snow |
|---|---|---|---|---|---|---|---|
| 1778043590 | 5.56° C | 85% | 1411.8 hPa | 0 mm | 0.45 m/s, 97° | - | - |
| 1778043470 | 5° C | 85% | 1411.4 hPa | 0 mm | 0.45 m/s, 96° | - | - |
| 1778043350 | 5° C | 86% | 1411.1 hPa | 0 mm | 0.45 m/s, 88° | - | - |
| 1778043230 | 5° C | 86% | 1410.6 hPa | 0 mm | 0.45 m/s, 98° | - | - |
| 1778043110 | 4.44° C | 86% | 1409.9 hPa | 0 mm | 0.45 m/s, 96° | - | - |
| 1778042990 | 4.44° C | 87% | 1412.6 hPa | 0 mm | 0.45 m/s, 102° | - | - |
| 1778042870 | 3.89° C | 87% | 1412.2 hPa | 0 mm | 0.45 m/s, 89° | - | - |
| 1778042750 | 3.89° C | 87% | 1412 hPa | 0 mm | 0.45 m/s, 105° | - | - |
| 1778042630 | 3.89° C | 87% | 1411.7 hPa | 0 mm | 0.45 m/s, 93° | - | - |
| 1778042510 | 3.89° C | 87% | 1411.5 hPa | 0 mm | 0.45 m/s, 87° | - | - |
| 1778042390 | 3.89° C | 87% | 1411.3 hPa | 0 mm | 0.45 m/s, 117° | - | - |
| 1778042270 | 3.89° C | 87% | 1411.1 hPa | 0 mm | 0.45 m/s, 96° | - | - |
| 1778042150 | 3.33° C | 87% | 1410.9 hPa | 0 mm | 0.45 m/s, 127° | - | - |
| 1778042030 | 3.33° C | 88% | 1410.8 hPa | 0 mm | 0 m/s | - | - |
| 1778041910 | 3.33° C | 88% | 1410.7 hPa | 0 mm | 0 m/s | - | - |
| 1778041790 | 3.33° C | 88% | 1414 hPa | 0 mm | 0 m/s | - | - |
| 1778041670 | 3.33° C | 88% | 1413.8 hPa | 0 mm | 0 m/s | - | - |
| 1778041550 | 3.33° C | 88% | 1413.6 hPa | 0 mm | 0 m/s | - | - |
| 1778041430 | 3.33° C | 88% | 1413.5 hPa | 0 mm | 0.45 m/s, 105° | - | - |
| 1778041310 | 3.33° C | 88% | 1413.4 hPa | 0 mm | 0 m/s | - | - |
| 1778041190 | 3.33° C | 88% | 1413.3 hPa | 0 mm | 0.45 m/s, 104° | - | - |
| 1778041070 | 3.33° C | 88% | 1413.2 hPa | 0 mm | 0.45 m/s, 86° | - | - |
| 1778040950 | 3.33° C | 88% | 1416.6 hPa | 0 mm | 0 m/s | - | - |
| 1778040830 | 3.33° C | 88% | 1416.6 hPa | 0 mm | 0.45 m/s, 88° | - | - |
| 1778040710 | 2.78° C | 88% | 1416.5 hPa | 0 mm | 0.45 m/s, 108° | - | - |
* Rain latest hour (hover to see other rain measurements)
** Current wind speed in m/s (hover to see current wind gust speed)